2069 Commits

Author SHA1 Message Date
3096e0d7de monitoring(overview): tighten climate labels and drop duplicate temp line 2026-04-12 18:50:25 -03:00
9f5c9bfb86 maintenance(soteria): re-enable flux management for workload resources 2026-04-12 18:41:56 -03:00
6b0d6b017c monitoring(overview): tune climate row and restore ups card density 2026-04-12 18:35:15 -03:00
de3272e160 merge: atlas jobs ariadne schedule observability 2026-04-12 18:33:07 -03:00
8a413c0024 merge: lane2 jenkins cleanup activate 2026-04-12 18:33:00 -03:00
aa24e08744 merge: lane2 jenkins cleanup wiring 2026-04-12 18:32:48 -03:00
cb27592272 monitoring(overview): reflow UPS/climate rows and add jenkins weather 2026-04-12 18:14:54 -03:00
f67ca30f94 monitoring(climate): add C/F history and dedupe typhon series 2026-04-12 17:56:54 -03:00
b6b1e533ed monitoring(jobs): add Ariadne schedule inventory signals 2026-04-12 17:29:27 -03:00
58ccbfb130 monitoring: add humidity and dew point to climate panels 2026-04-12 17:28:15 -03:00
5bf01bb8e6 vault(auth): allow maintenance soteria oidc secret path 2026-04-12 17:23:41 -03:00
a20fd995a1 monitoring: switch climate dashboards to typhon metrics 2026-04-12 17:20:05 -03:00
e2fbff3315 typhon(flux): unblock reconcile by dropping vault dependsOn 2026-04-12 15:24:40 -03:00
c3ef14c269 typhon: add AC Infinity telemetry service and Flux wiring 2026-04-12 15:23:08 -03:00
82cab1ce2a maintenance(soteria): tighten oauth2 ingress and drill validation 2026-04-12 15:07:54 -03:00
c325744540 monitoring(alerts): watch soteria authz denial spikes 2026-04-12 15:07:54 -03:00
241a405c05 maintenance(soteria): harden ingress path and add backup alerts 2026-04-12 15:07:54 -03:00
6a44a56c38 maintenance(soteria): add serviceaccount and rbac manifests 2026-04-12 15:07:54 -03:00
091e743d0e maintenance(soteria): add protected UI, OIDC bootstrap, and backup health panel wiring 2026-04-12 15:07:53 -03:00
4864939eef maintenance(ariadne): activate jenkins workspace cleanup deletes 2026-04-12 15:01:35 -03:00
01ecb75c5b scripts: default cleanup verifier to maintenance kustomization 2026-04-12 15:01:11 -03:00
fa30ea0ac2 scripts: add jenkins cleanup rollout verifier 2026-04-12 12:32:20 -03:00
2509d8876a maintenance(ariadne): default jenkins cleanup to safe dry-run 2026-04-12 12:32:20 -03:00
8331411b93 jenkins: use emptyDir workspace for default agents 2026-04-12 05:54:26 -03:00
369e738cf3 jenkins: run default jnlp agent as root and fix default label 2026-04-12 05:47:06 -03:00
4da6b0da3a jenkins: run data-prepper from main and default publish repo to monitoring 2026-04-12 05:26:45 -03:00
6276bd037c maintenance/ariadne: add jenkins workspace cleanup schedule and RBAC 2026-04-12 04:47:19 -03:00
4f6ca60521 jenkins: add atlasbot and soteria pipeline jobs 2026-04-12 04:35:12 -03:00
3774b600ee scheduling: keep app workloads off control-plane 2026-04-12 04:27:43 -03:00
246424762e maintenance: remove pi-usb-scratch guard rollout 2026-04-12 01:04:23 -03:00
63e89b51f0 maintenance(pi-usb-scratch): disable rollout jitter for initial cutover 2026-04-11 12:00:46 -03:00
3cb1582adc maintenance(pi-usb-scratch): fix false mount conflict detection 2026-04-11 11:58:00 -03:00
3ea296b552 maintenance: enforce Astraios + tmpfs /tmp on worker Pis 2026-04-11 11:55:49 -03:00
5e39164fcd maintenance: add worker pi usb scratch rollout 2026-04-11 11:55:49 -03:00
131c34012b ci: run titan-iac promote step in jnlp git-capable container 2026-04-10 17:41:27 -03:00
8cd170736a testing(ci): stop requiring AGENTS.md in titan-iac quality gate 2026-04-10 17:39:07 -03:00
52d4709dd9 jenkins: run titan-iac glue tests with jenkins SA and vm fqdn 2026-04-10 17:28:29 -03:00
84d6edf684 testing(ci): document quality gate scope boundaries 2026-04-10 17:26:42 -03:00
5172129ae9 ci: use single-quoted awk script for flux branch parsing 2026-04-10 17:22:15 -03:00
fbdda16f55 ci: escape awk branch field in groovy pipeline strings 2026-04-10 17:17:51 -03:00
15dfbb728c jenkins: add direct titan-iac pipeline job on main 2026-04-10 17:12:46 -03:00
370ece5b60 testing(ci): centralize quality gate contract 2026-04-10 17:11:02 -03:00
9f088577b1 ci: publish titan-iac tests and seed ananke/lesavka jobs 2026-04-10 16:40:05 -03:00
b723382ff4 dashboards: unify suite pass-rate metrics on platform counters 2026-04-10 16:39:55 -03:00
9485541d2c logging/ci: make data-prepper image publish opt-in 2026-04-10 06:53:14 -03:00
434b586970 logging/ci: default push_latest when scm build omits params 2026-04-10 06:42:25 -03:00
34e0183b48 logging/ci: publish data-prepper smoke test metrics 2026-04-10 06:24:51 -03:00
3bc1a7eb40 jellyfin: remove retired oidc pipeline artifact 2026-04-10 06:07:59 -03:00
9ca75d3fb3 jenkins: trigger data-prepper rerun on main 2026-04-10 06:03:39 -03:00
fb510e89ee jenkins: retire unused ci-demo and jellyfin-oidc jobs 2026-04-10 05:59:52 -03:00